This is the latest recevied weather packets stored in our database for station/object OH6GKW. If no packets are shown the sender has not sent any weather packets the latest 10 day(s).
| Time | Temp. | Humidity | Pressure | Rain* | Wind** | Luminosity | Snow |
|---|---|---|---|---|---|---|---|
| 1777441125 | 2.78° C | 70% | 1024 hPa | 0 mm | - | 120 W/m² | - |
| 1777440823 | 2.22° C | 71% | 1024 hPa | 0 mm | - | 67 W/m² | - |
| 1777440514 | 2.22° C | 72% | 1024.1 hPa | 0 mm | - | 40 W/m² | - |
| 1777440238 | 2.22° C | 73% | 1024.1 hPa | 0 mm | - | 56 W/m² | - |
| 1777439930 | 2.22° C | 74% | 1024.1 hPa | 0 mm | - | 48 W/m² | - |
| 1777439619 | 2.22° C | 75% | 1024 hPa | 0 mm | - | 148 W/m² | - |
| 1777439310 | 1.67° C | 76% | 1024 hPa | 0 mm | - | 88 W/m² | - |
| 1777439025 | 1.67° C | 78% | 1024 hPa | 0 mm | - | 39 W/m² | - |
| 1777438716 | 1.67° C | 80% | 1024 hPa | 0 mm | - | 32 W/m² | - |
| 1777438409 | 1.11° C | 82% | 1024 hPa | 0 mm | - | 32 W/m² | - |
| 1777438122 | 1.11° C | 83% | 1024 hPa | 0 mm | - | 55 W/m² | - |
| 1777437827 | 0.56° C | 83% | 1023.9 hPa | 0 mm | - | 135 W/m² | - |
| 1777437521 | 0.56° C | 85% | 1023.9 hPa | 0 mm | - | 25 W/m² | - |
| 1777437217 | 0° C | 88% | 1023.9 hPa | 0 mm | - | 26 W/m² | - |
| 1777436927 | 0° C | 91% | 1023.8 hPa | 0 mm | - | 26 W/m² | - |
| 1777436616 | -0.56° C | 94% | 1023.8 hPa | 0 mm | - | 28 W/m² | - |
| 1777436309 | -1.11° C | 95% | 1023.8 hPa | 0 mm | - | 25 W/m² | - |
| 1777436022 | -1.67° C | 97% | 1023.8 hPa | 0 mm | - | 21 W/m² | - |
| 1777435717 | -2.22° C | 97% | 1023.8 hPa | 0 mm | - | 19 W/m² | - |
| 1777435412 | -2.22° C | 97% | 1023.8 hPa | 0 mm | - | 19 W/m² | - |
| 1777435134 | -2.78° C | 96% | 1023.8 hPa | 0 mm | - | 19 W/m² | - |
| 1777434827 | -2.78° C | 97% | 1023.8 hPa | 0 mm | - | 19 W/m² | - |
| 1777434519 | -2.78° C | 97% | 1023.8 hPa | 0 mm | - | 18 W/m² | - |
| 1777434211 | -2.78° C | 98% | 1023.8 hPa | 0 mm | - | 18 W/m² | - |
| 1777433923 | -2.78° C | 98% | 1023.8 hPa | 0 mm | - | 16 W/m² | - |
* Rain since midnight (hover to see other rain measurements)
** Current wind speed in m/s (hover to see current wind gust speed)